(41823) = 1998 KS30 = 2000 WZ47

Discovered at Socorro on 2000-11-21 by LINEAR.

Orbit

Orbit type: Main Belt

Note: WebGL enabled browser required.

epoch2023-09-13.0
epoch JD2460200.5
perihelion date2022-06-08.27535
perihelion JD2459738.77535
argument of perihelion (°)253.03215
ascending node (°)241.75432
inclination (°)14.72998
eccentricity0.0667608
perihelion distance (AU)2.4274959
Tisserand w.r.t. Jupiter3.4
ΔV w.r.t. Earth (km/sec)10.8
semimajor axis (AU)2.6011507
mean anomaly (°)108.47724
mean daily motion (°/day)0.23493930
aphelion distance (AU)2.775
period (years)4.2
P-vector [x]-0.67677521
P-vector [y]0.73425976
P-vector [z]0.05327210
Q-vector [x]-0.70128791
Q-vector [y]-0.62098374
Q-vector [z]-0.35010635
absolute magnitude15.08
phase slope0.15
uncertainty0
referenceMPEC 2024-A48
observations used1104
oppositions19
arc length (days)9159
first opposition used1998
last opposition used2023
residual rms (arc-secs)0.72
perturbers coarse indicatorM-v
perturbers precise indicator003Ek
first observation date used1998-05-22.0
last observation date used2023-06-19.0
computer nameMPCLINUX
JD of orbit computation2456731.518471
perihelion JD uncertainty (days)1.7223E-04
argument of perihelion uncertainty (°)4.5078E-05
ascending node uncertainty (°)1.9038E-05
inclination uncertainty (°)5.0721E-06
eccentricity uncertainty 4.3345E-08
perihelion distance uncertainty (AU)1.1561E-07
Minimum Orbit Intersection Distances (in AU)
for orbit epoch: 2460200.5, reference: E2024-A48
Mercury2.09832
Venus1.74699
Earth1.48579
Mars0.93345
Jupiter2.39143
Saturn6.5574
Uranus16.0756
Neptune27.2351

Observations

1113 total observations over interval: 1998 05 22.26699 – 2023 06 19.312087
These data are available for download (format description).

Date (UT) J2000 RA J2000 Dec Magn Location Ref
1998 05 22.26699 15 41 42.92 -20 53 00.4 18.3   704 – Lincoln Laboratory ETS, New Mexico MPS 1498
1998 05 22.28648 15 41 41.66 -20 52 49.6 19.2   704 – Lincoln Laboratory ETS, New Mexico MPS 1498
1998 05 22.30594 15 41 40.68 -20 52 42.0 19.6   704 – Lincoln Laboratory ETS, New Mexico MPS 1498
1998 05 22.30902 15 41 40.64 -20 52 37.6 18.5 R 699 – Lowell Observatory-LONEOS MPS 34357
1998 05 22.31895 15 41 40.08 -20 52 32.5   699 – Lowell Observatory-LONEOS MPS 34357
1998 05 22.32554 15 41 39.70 -20 52 28.6 19.5   704 – Lincoln Laboratory ETS, New Mexico MPS 1498
1998 05 22.32887 15 41 39.48 -20 52 26.2   699 – Lowell Observatory-LONEOS MPS 34357
1998 05 24.25454 15 39 55.15 -20 35 26.1 18.5   704 – Lincoln Laboratory ETS, New Mexico MPS 1498
1998 05 24.27415 15 39 53.87 -20 35 16.9 18.2   704 – Lincoln Laboratory ETS, New Mexico MPS 1498
1998 05 24.29378 15 39 52.92 -20 35 03.3 18.6   704 – Lincoln Laboratory ETS, New Mexico MPS 1498
1998 05 24.31361 15 39 51.80 -20 34 56.4 19.3   704 – Lincoln Laboratory ETS, New Mexico MPS 1498
1999 08 11.32388 22 23 44.46 +13 56 17.4 19.7   704 – Lincoln Laboratory ETS, New Mexico MPS 34357
1999 08 11.34701 22 23 43.40 +13 56 16.8 20.4   704 – Lincoln Laboratory ETS, New Mexico MPS 34357
1999 08 11.37013 22 23 42.31 +13 56 14.8 20.2   704 – Lincoln Laboratory ETS, New Mexico MPS 34357
2000 11 21.38682 06 09 53.85 +16 13 39.0 18.4   704 – Lincoln Laboratory ETS, New Mexico MPS 22885
2000 11 21.41724 06 09 52.52 +16 13 24.1 18.7   704 – Lincoln Laboratory ETS, New Mexico MPS 22885
2000 11 21.43183 06 09 52.15 +16 13 18.0 18.0   704 – Lincoln Laboratory ETS, New Mexico MPS 22885
2000 11 21.44673 06 09 51.51 +16 13 10.6 18.5   704 – Lincoln Laboratory ETS, New Mexico MPS 22885
2000 11 27.29683 06 05 51.40 +15 29 25.2 18.1   704 – Lincoln Laboratory ETS, New Mexico MPS 22885
2000 11 27.31132 06 05 50.76 +15 29 19.3 18.5   704 – Lincoln Laboratory ETS, New Mexico MPS 22885
2000 11 27.32582 06 05 50.09 +15 29 12.8 18.4   704 – Lincoln Laboratory ETS, New Mexico MPS 22885
2000 11 27.34033 06 05 49.40 +15 29 06.1 17.9   704 – Lincoln Laboratory ETS, New Mexico MPS 22885
2000 11 27.35482 06 05 48.73 +15 28 59.6 18.1   704 – Lincoln Laboratory ETS, New Mexico MPS 22885
2000 12 20.27652 05 44 13.72 +12 49 47.4 18.0   704 – Lincoln Laboratory ETS, New Mexico MPS 34357
2000 12 20.29147 05 44 12.72 +12 49 41.7 18.8   704 – Lincoln Laboratory ETS, New Mexico MPS 34357
2000 12 20.30690 05 44 11.88 +12 49 36.1 18.9   704 – Lincoln Laboratory ETS, New Mexico MPS 34357
2000 12 20.32187 05 44 10.74 +12 49 31.1 18.8   704 – Lincoln Laboratory ETS, New Mexico MPS 34357
2001 01 04.22585 05 30 01.18 +11 32 59.6 18.6   704 – Lincoln Laboratory ETS, New Mexico MPS 34357
2001 01 04.24237 05 30 00.31 +11 32 56.2 18.4   704 – Lincoln Laboratory ETS, New Mexico MPS 34357
2001 01 04.25862 05 29 59.45 +11 32 52.5 19.1   704 – Lincoln Laboratory ETS, New Mexico MPS 34357
2001 01 04.28036 05 29 58.35 +11 32 47.2 19.5   704 – Lincoln Laboratory ETS, New Mexico MPS 34357
2001 01 04.29564 05 29 57.55 +11 32 43.0 19.1   704 – Lincoln Laboratory ETS, New Mexico MPS 34357
2001 01 21.16565 05 19 25.42 +10 44 44.8 19.0   704 – Lincoln Laboratory ETS, New Mexico MPS 34357
2001 01 21.18426 05 19 24.89 +10 44 43.9 19.6   704 – Lincoln Laboratory ETS, New Mexico MPS 34357
2001 01 21.20184 05 19 24.46 +10 44 42.1 20.0   704 – Lincoln Laboratory ETS, New Mexico MPS 34357
2001 01 21.21988 05 19 24.00 +10 44 40.3 19.6   704 – Lincoln Laboratory ETS, New Mexico MPS 34357
2001 01 21.23622 05 19 23.62 +10 44 38.0 20.0   704 – Lincoln Laboratory ETS, New Mexico MPS 34357
2002 04 21.27692 14 08 38.66 -24 37 17.5 18.9   704 – Lincoln Laboratory ETS, New Mexico MPS 54842
2002 04 21.29038 14 08 37.99 -24 37 09.9 19.0   704 – Lincoln Laboratory ETS, New Mexico MPS 54842
2002 04 21.30481 14 08 37.15 -24 37 02.1 19.1   704 – Lincoln Laboratory ETS, New Mexico MPS 54842
2002 04 21.31850 14 08 36.40 -24 36 55.3 19.1   704 – Lincoln Laboratory ETS, New Mexico MPS 54842
2002 04 21.33704 14 08 35.37 -24 36 45.6 19.2   704 – Lincoln Laboratory ETS, New Mexico MPS 54842
2002 05 01.32541 14 00 08.13 -22 57 24.4 19.1   644 – Palomar Mountain/NEAT MPS 54530
2002 05 01.33599 14 00 07.55 -22 57 17.5 20.3   644 – Palomar Mountain/NEAT MPS 54530
2002 05 01.34664 14 00 06.99 -22 57 11.1 19.8   644 – Palomar Mountain/NEAT MPS 54530
2002 05 09.21596 13 54 03.38 -21 32 57.4 19.5   704 – Lincoln Laboratory ETS, New Mexico MPS 54530
2002 05 09.22826 13 54 02.82 -21 32 50.6 19.5   704 – Lincoln Laboratory ETS, New Mexico MPS 54530
2002 05 09.24055 13 54 02.27 -21 32 42.9 19.4   704 – Lincoln Laboratory ETS, New Mexico MPS 54530
2002 05 09.25294 13 54 01.68 -21 32 36.1 19.3   704 – Lincoln Laboratory ETS, New Mexico MPS 54531
2002 05 09.26524 13 54 01.13 -21 32 27.2 19.3   704 – Lincoln Laboratory ETS, New Mexico MPS 54531
2002 05 11.22907 13 52 39.25 -21 11 13.6 18.2   704 – Lincoln Laboratory ETS, New Mexico MPS 54531
2002 05 11.24400 13 52 38.65 -21 11 04.2 18.7   704 – Lincoln Laboratory ETS, New Mexico MPS 54531
2002 05 11.25987 13 52 37.99 -21 10 53.1 18.8   704 – Lincoln Laboratory ETS, New Mexico MPS 54531
2002 05 11.27484 13 52 37.30 -21 10 44.1 19.0   704 – Lincoln Laboratory ETS, New Mexico MPS 54531
2002 05 11.29059 13 52 36.60 -21 10 34.0 18.8   704 – Lincoln Laboratory ETS, New Mexico MPS 54531
2002 05 11.31595 13 52 35.63 -21 10 16.4 18.8   644 – Palomar Mountain/NEAT MPS 54531
2002 05 11.33689 13 52 34.75 -21 10 03.0 18.9   644 – Palomar Mountain/NEAT MPS 54531
2002 05 11.35792 13 52 33.84 -21 09 49.2 19.0   644 – Palomar Mountain/NEAT MPS 54531
2002 05 27.37291 13 44 32.55 -18 26 03.5 20.0   608 – Haleakala-AMOS MPS 58623
2002 05 27.38360 13 44 32.29 -18 25 58.2 20.3   608 – Haleakala-AMOS MPS 58623
2002 05 27.39530 13 44 32.12 -18 25 51.5 20.5   608 – Haleakala-AMOS MPS 58623
2003 07 22.32396 21 14 53.81 +06 26 06.1 19.0   644 – Palomar Mountain/NEAT MPS 82564
2003 07 22.34659 21 14 52.74 +06 26 07.8 19.2   644 – Palomar Mountain/NEAT MPS 82564
2003 07 22.36934 21 14 51.65 +06 26 09.7 19.3   644 – Palomar Mountain/NEAT MPS 82564
2003 07 26.26282 21 11 46.64 +06 29 55.7 18.7   644 – Palomar Mountain/NEAT MPS 82564
2003 07 26.34841 21 11 42.34 +06 29 58.5 18.8   644 – Palomar Mountain/NEAT MPS 82564
2003 07 26.41278 21 11 39.08 +06 30 00.5 18.8   644 – Palomar Mountain/NEAT MPS 82564
2003 07 28.57525 21 09 51.54 +06 30 33.5 20.8   608 – Haleakala-AMOS MPS 82564
2003 07 28.58585 21 09 50.98 +06 30 34.1 20.6   608 – Haleakala-AMOS MPS 82564
2003 07 28.59692 21 09 50.40 +06 30 33.4 21.2   608 – Haleakala-AMOS MPS 82564
2003 08 08.34485 21 00 30.84 +06 17 39.8 20.1   608 – Haleakala-AMOS MPS 82928
2003 08 08.35605 21 00 30.28 +06 17 37.9 20.6   608 – Haleakala-AMOS MPS 82928
2003 08 08.36718 21 00 29.58 +06 17 36.7 20.7   608 – Haleakala-AMOS MPS 82928
2003 10 18.080020 20 39 37.599 +00 03 00.92 20.07 V 645 – Apache Point-Sloan Digital Sky Survey MPS 136243
2003 10 18.083492 20 39 37.698 +00 03 00.06 20.82   645 – Apache Point-Sloan Digital Sky Survey MPS 136243
2003 10 22.074660 20 41 50.269 -00 12 24.81 20.09 V 645 – Apache Point-Sloan Digital Sky Survey MPS 136243
2003 10 22.078132 20 41 50.390 -00 12 25.57 20.82   645 – Apache Point-Sloan Digital Sky Survey MPS 136243
2003 10 23.079770 20 42 26.739 -00 16 00.35 20.15 V 645 – Apache Point-Sloan Digital Sky Survey MPS 136243
2003 10 23.083242 20 42 26.861 -00 16 01.10 20.87   645 – Apache Point-Sloan Digital Sky Survey MPS 136243
2004 09 13.37162 04 25 19.77 +26 28 05.5 19.9   704 – Lincoln Laboratory ETS, New Mexico MPS 113794
2004 09 13.38301 04 25 20.23 +26 28 06.0 20.2   704 – Lincoln Laboratory ETS, New Mexico MPS 113794
2004 09 13.39445 04 25 20.80 +26 28 05.2 20.2   704 – Lincoln Laboratory ETS, New Mexico MPS 113794
2004 09 18.37627 04 28 38.15 +26 22 10.8 20.0   704 – Lincoln Laboratory ETS, New Mexico MPS 115002
2004 09 18.38847 04 28 38.63 +26 22 10.7 20.4   704 – Lincoln Laboratory ETS, New Mexico MPS 115002
2004 09 18.40062 04 28 39.03 +26 22 10.3 20.4   704 – Lincoln Laboratory ETS, New Mexico MPS 115002
2004 09 18.41279 04 28 39.47 +26 22 08.9 20.3   704 – Lincoln Laboratory ETS, New Mexico MPS 115002
